AFR385 MMPR-TFFF

Flight info

Callsign AFR385
Flight time N/A
Altitude 35000
Route LIPEP1D LIPEP UJ14 QET DCT PAZ DCT CPE UJ61 AXIMA DCT ANIKO DCT SEKIN/N0456F370 DCT MLY UH106 NOSIS UL349 SATOE L349 GESSO DCT EMOLA EMOLA2X
Aircraft A320/M-SDE3FGHIRWY/LB1

Departure

Time 2026-05-05 20:58
Airport Puerto Vallarta International Airport (MMPR)

Arrival

Time N/A
Airport Martinique Aimé Césaire International Airport (TFFF)
Time Latitude Longitude Altitude Speed Heading
2026-05-05 20:35 20.68188 -105.24551 29 ft 0 kts 47°
2026-05-05 20:51 20.68177 -105.24564 29 ft 4 kts 47°
2026-05-05 20:51 20.68158 -105.24585 29 ft 4 kts 47°
2026-05-05 20:51 20.68139 -105.24605 29 ft 4 kts 30°
2026-05-05 20:51 20.68116 -105.24613 29 ft 4 kts 342°
2026-05-05 20:52 20.68102 -105.24605 29 ft 1 kts 317°
2026-05-05 20:52 20.68101 -105.24604 29 ft 0 kts 317°
2026-05-05 20:54 20.68104 -105.24607 29 ft 4 kts 317°
2026-05-05 20:54 20.68126 -105.24628 29 ft 5 kts 317°
2026-05-05 20:54 20.68158 -105.24660 29 ft 6 kts 317°
2026-05-05 20:55 20.68200 -105.24697 29 ft 11 kts 333°
2026-05-05 20:55 20.68284 -105.24684 29 ft 13 kts 18°
2026-05-05 20:55 20.68362 -105.24657 29 ft 11 kts 18°
2026-05-05 20:55 20.68449 -105.24629 29 ft 19 kts 16°
2026-05-05 20:56 20.68538 -105.24546 29 ft 16 kts 48°
2026-05-05 20:56 20.68616 -105.24461 29 ft 18 kts 46°
2026-05-05 20:56 20.68694 -105.24371 29 ft 16 kts 47°
2026-05-05 20:56 20.68766 -105.24289 29 ft 15 kts 46°
2026-05-05 20:57 20.68850 -105.24269 29 ft 12 kts 334°
2026-05-05 20:57 20.68912 -105.24326 28 ft 12 kts 317°
2026-05-05 20:57 20.68904 -105.24397 29 ft 11 kts 226°
2026-05-05 20:57 20.68791 -105.24521 30 ft 51 kts 227°
2026-05-05 20:58 20.68364 -105.25010 28 ft 125 kts 227°
2026-05-05 20:58 20.67654 -105.25824 101 ft 172 kts 229°
2026-05-05 20:58 20.66798 -105.26826 636 ft 195 kts 231°
2026-05-05 20:58 20.65819 -105.27922 1360 ft 209 kts 227°
2026-05-05 20:59 20.64778 -105.29041 2287 ft 210 kts 227°
2026-05-05 20:59 20.63761 -105.30179 3286 ft 212 kts 227°
2026-05-05 20:59 20.62756 -105.31322 4227 ft 215 kts 227°
2026-05-05 20:59 20.61723 -105.32501 4889 ft 218 kts 227°
2026-05-05 21:00 20.60671 -105.33700 5411 ft 222 kts 227°
2026-05-05 21:00 20.59490 -105.34762 5934 ft 225 kts 204°
2026-05-05 21:00 20.57956 -105.34993 6470 ft 235 kts 168°
2026-05-05 21:00 20.56528 -105.34191 7415 ft 231 kts 132°
2026-05-05 21:01 20.55472 -105.32819 8151 ft 242 kts 133°
2026-05-05 21:01 20.54133 -105.31749 8717 ft 240 kts 156°
2026-05-05 21:01 20.52605 -105.31091 9270 ft 240 kts 162°
2026-05-05 21:01 20.51013 -105.30496 9748 ft 247 kts 162°
2026-05-05 21:02 20.49387 -105.29839 10412 ft 251 kts 160°
2026-05-05 21:02 20.47790 -105.29119 11315 ft 251 kts 158°
2026-05-05 21:02 20.46202 -105.28337 12218 ft 250 kts 156°
2026-05-05 21:02 20.44641 -105.27519 12807 ft 250 kts 155°
2026-05-05 21:03 20.43098 -105.26680 13346 ft 252 kts 154°
2026-05-05 21:03 20.41626 -105.25655 13879 ft 255 kts 136°
2026-05-05 21:03 20.40618 -105.24061 14176 ft 271 kts 112°
2026-05-05 21:03 20.40371 -105.22000 14299 ft 295 kts 84°
2026-05-05 21:04 20.40807 -105.19809 14425 ft 314 kts 79°
2026-05-05 21:04 20.41333 -105.17461 14531 ft 332 kts 79°
2026-05-05 21:04 20.41893 -105.14990 14644 ft 349 kts 79°
2026-05-05 21:04 20.42464 -105.12465 14760 ft 362 kts 79°
2026-05-05 21:05 20.43063 -105.09792 14890 ft 377 kts 79°
2026-05-05 21:05 20.43679 -105.07020 15062 ft 389 kts 79°
2026-05-05 21:05 20.44309 -105.04180 15444 ft 394 kts 79°
2026-05-05 21:05 20.44936 -105.01343 15868 ft 398 kts 79°
2026-05-05 21:06 20.45572 -104.98457 16287 ft 401 kts 79°
2026-05-05 21:06 20.46214 -104.95544 16682 ft 404 kts 79°
2026-05-05 21:06 20.46861 -104.92604 17095 ft 407 kts 79°
2026-05-05 21:06 20.47501 -104.89682 17450 ft 411 kts 79°
2026-05-05 21:07 20.48156 -104.86694 17869 ft 413 kts 79°
2026-05-05 21:07 20.48815 -104.83691 18270 ft 416 kts 79°
2026-05-05 21:07 20.49469 -104.80705 18608 ft 418 kts 79°
2026-05-05 21:07 20.50134 -104.77673 18968 ft 420 kts 79°
2026-05-05 21:08 20.50799 -104.74626 19329 ft 421 kts 79°
2026-05-05 21:08 20.51466 -104.71563 19682 ft 424 kts 79°
2026-05-05 21:08 20.52128 -104.68525 20030 ft 426 kts 79°
2026-05-05 21:08 20.52807 -104.65436 20373 ft 427 kts 80°
2026-05-05 21:09 20.53489 -104.62329 20684 ft 430 kts 80°
2026-05-05 21:09 20.54170 -104.59219 21042 ft 431 kts 80°
2026-05-05 21:09 20.54851 -104.56092 21380 ft 432 kts 80°
2026-05-05 21:09 20.55523 -104.52993 21712 ft 434 kts 80°
2026-05-05 21:10 20.56208 -104.49841 22043 ft 436 kts 80°
2026-05-05 21:10 20.56894 -104.46675 22372 ft 437 kts 80°
2026-05-05 21:10 20.57573 -104.43534 22649 ft 439 kts 81°
2026-05-05 21:10 20.58260 -104.40343 23009 ft 441 kts 81°
2026-05-05 21:11 20.58952 -104.37137 23341 ft 442 kts 81°
2026-05-05 21:11 20.59646 -104.33928 23619 ft 444 kts 81°
2026-05-05 21:11 20.60343 -104.30706 23905 ft 446 kts 81°
2026-05-05 21:11 20.60807 -104.27478 24157 ft 444 kts 90°
2026-05-05 21:12 20.60763 -104.24185 24396 ft 441 kts 99°
2026-05-05 21:12 20.60467 -104.20905 24631 ft 443 kts 99°
2026-05-05 21:12 20.60176 -104.17657 24860 ft 445 kts 98°
2026-05-05 21:12 20.59881 -104.14339 25093 ft 448 kts 98°
2026-05-05 21:13 20.59588 -104.11044 25333 ft 450 kts 98°
2026-05-05 21:13 20.59291 -104.07670 25574 ft 452 kts 98°
2026-05-05 21:13 20.59000 -104.04364 25814 ft 454 kts 98°
2026-05-05 21:13 20.58704 -104.01009 26056 ft 456 kts 98°
2026-05-05 21:14 20.58403 -103.97609 26298 ft 458 kts 98°
2026-05-05 21:14 20.58102 -103.94214 26529 ft 460 kts 98°
2026-05-05 21:14 20.57802 -103.90821 26755 ft 462 kts 98°
2026-05-05 21:14 20.57498 -103.87390 26965 ft 464 kts 98°
2026-05-05 21:15 20.57187 -103.83945 27183 ft 467 kts 98°
2026-05-05 21:15 20.56874 -103.80482 27392 ft 468 kts 98°
2026-05-05 21:15 20.56562 -103.77048 27588 ft 470 kts 98°
2026-05-05 21:15 20.56244 -103.73551 27798 ft 472 kts 98°
2026-05-05 21:16 20.55924 -103.70050 27989 ft 474 kts 98°
2026-05-05 21:16 20.55600 -103.66541 28222 ft 476 kts 98°
2026-05-05 21:16 20.55280 -103.63070 28439 ft 478 kts 98°
2026-05-05 21:16 20.54956 -103.59513 28676 ft 480 kts 98°
2026-05-05 21:17 20.54632 -103.55963 28922 ft 481 kts 98°
2026-05-05 21:17 20.54304 -103.52389 29245 ft 481 kts 98°
2026-05-05 21:17 20.53982 -103.48865 29547 ft 481 kts 98°
2026-05-05 21:17 20.53656 -103.45307 29823 ft 481 kts 98°
2026-05-05 21:18 20.53327 -103.41743 30095 ft 482 kts 98°
2026-05-05 21:18 20.52998 -103.38173 30331 ft 482 kts 98°
2026-05-05 21:18 20.52673 -103.34656 30548 ft 481 kts 98°
2026-05-05 21:18 20.52399 -103.31064 30768 ft 482 kts 93°
2026-05-05 21:19 20.52486 -103.27522 30995 ft 483 kts 89°
2026-05-05 21:19 20.52632 -103.23937 31221 ft 482 kts 89°
2026-05-05 21:19 20.52775 -103.20344 31451 ft 482 kts 89°
2026-05-05 21:19 20.52911 -103.16811 31634 ft 481 kts 90°
2026-05-05 21:20 20.53045 -103.13243 31833 ft 480 kts 90°
2026-05-05 21:20 20.53179 -103.09656 32030 ft 480 kts 90°
2026-05-05 21:20 20.53310 -103.06144 32223 ft 479 kts 89°
2026-05-05 21:20 20.53444 -103.02581 32426 ft 479 kts 90°
2026-05-05 21:21 20.53577 -102.99033 32627 ft 478 kts 90°
2026-05-05 21:21 20.53708 -102.95479 32834 ft 477 kts 90°
2026-05-05 21:21 20.53835 -102.91973 33052 ft 477 kts 90°
2026-05-05 21:21 20.53963 -102.88424 33307 ft 476 kts 89°
2026-05-05 21:22 20.54050 -102.86086 33465 ft 476 kts 89°
2026-05-05 21:22 20.54181 -102.82560 33712 ft 475 kts 89°
2026-05-05 21:22 20.54310 -102.79036 33949 ft 475 kts 90°
2026-05-05 21:22 20.54481 -102.74365 34222 ft 474 kts 89°
2026-05-05 21:23 20.54568 -102.71984 34358 ft 474 kts 89°
2026-05-05 21:23 20.54697 -102.68473 34550 ft 473 kts 89°
2026-05-05 21:23 20.54820 -102.65000 34742 ft 473 kts 90°
2026-05-05 21:23 20.54942 -102.61496 34925 ft 472 kts 89°
2026-05-05 21:24 20.55064 -102.57976 35115 ft 472 kts 89°
2026-05-05 21:24 20.55184 -102.54474 35305 ft 472 kts 89°
2026-05-05 21:24 20.55302 -102.51007 35486 ft 471 kts 89°
2026-05-05 21:24 20.55421 -102.47504 35661 ft 471 kts 90°
2026-05-05 21:25 20.55538 -102.44016 35822 ft 470 kts 89°
2026-05-05 21:25 20.55655 -102.40551 35981 ft 470 kts 89°
2026-05-05 21:25 20.55772 -102.37051 36146 ft 470 kts 89°
2026-05-05 21:25 20.55892 -102.33568 36297 ft 469 kts 89°
2026-05-05 21:26 20.56013 -102.30084 36447 ft 469 kts 89°
2026-05-05 21:26 20.56130 -102.26628 36602 ft 469 kts 89°
2026-05-05 21:26 20.56249 -102.23141 36768 ft 468 kts 89°
2026-05-05 21:26 20.56364 -102.19698 36861 ft 469 kts 89°
2026-05-05 21:27 20.56591 -102.12703 36872 ft 470 kts 90°
2026-05-05 21:27 20.56812 -102.05757 36867 ft 470 kts 89°
2026-05-05 21:28 20.57037 -101.98779 36864 ft 470 kts 89°
2026-05-05 21:28 20.57249 -101.91838 36865 ft 469 kts 90°
2026-05-05 21:29 20.57461 -101.84858 36861 ft 469 kts 89°
2026-05-05 21:29 20.57672 -101.77914 36860 ft 469 kts 89°
2026-05-05 21:30 20.57874 -101.70955 36857 ft 469 kts 89°
2026-05-05 21:30 20.58078 -101.64023 36855 ft 468 kts 89°
2026-05-05 21:31 20.58283 -101.57060 36848 ft 468 kts 89°
2026-05-05 21:31 20.58485 -101.50095 36850 ft 468 kts 89°
2026-05-05 21:32 20.58676 -101.43181 36845 ft 468 kts 89°
2026-05-05 21:32 20.58871 -101.36269 36845 ft 467 kts 89°
2026-05-05 21:33 20.59064 -101.29325 36841 ft 467 kts 89°
2026-05-05 21:33 20.59252 -101.22429 36842 ft 467 kts 89°
2026-05-05 21:34 20.59443 -101.15491 36839 ft 467 kts 89°
2026-05-05 21:34 20.59624 -101.08550 36843 ft 467 kts 89°
2026-05-05 21:35 20.59799 -101.01602 36841 ft 467 kts 89°
2026-05-05 21:35 20.59975 -100.94706 36844 ft 467 kts 89°
2026-05-05 21:36 20.60150 -100.87759 36847 ft 467 kts 90°
2026-05-05 21:36 20.60325 -100.80847 36846 ft 467 kts 90°
2026-05-05 21:37 20.60498 -100.73944 36844 ft 467 kts 90°
2026-05-05 21:37 20.60663 -100.67012 36844 ft 467 kts 90°
2026-05-05 21:38 20.60829 -100.60069 36844 ft 467 kts 90°
2026-05-05 21:38 20.60995 -100.53178 36903 ft 467 kts 90°
2026-05-05 21:39 20.61157 -100.46234 37006 ft 467 kts 90°
2026-05-05 21:39 20.61308 -100.39284 37103 ft 467 kts 90°
2026-05-05 21:40 20.61460 -100.32380 37203 ft 467 kts 90°
2026-05-05 21:40 20.61620 -100.25428 37262 ft 467 kts 90°
2026-05-05 21:41 20.61767 -100.18493 37265 ft 467 kts 90°
2026-05-05 21:41 20.61817 -100.11593 37265 ft 467 kts 91°
2026-05-05 21:42 20.61782 -100.04686 37206 ft 466 kts 91°
2026-05-05 21:42 20.61759 -99.97739 37105 ft 466 kts 91°
2026-05-05 21:43 20.61763 -99.90837 37001 ft 467 kts 91°
2026-05-05 21:43 20.61777 -99.83893 36895 ft 467 kts 91°
2026-05-05 21:44 20.61776 -99.76965 36840 ft 467 kts 91°
2026-05-05 21:44 20.61761 -99.70058 36837 ft 467 kts 91°
2026-05-05 21:45 20.61752 -99.63119 36834 ft 467 kts 91°
2026-05-05 21:45 20.61741 -99.56173 36837 ft 467 kts 91°
2026-05-05 21:46 20.61726 -99.49265 36835 ft 467 kts 91°
2026-05-05 21:46 20.61711 -99.42331 36836 ft 467 kts 91°
2026-05-05 21:47 20.61688 -99.35411 36837 ft 467 kts 91°
2026-05-05 21:47 20.61662 -99.28479 36838 ft 467 kts 91°
2026-05-05 21:48 20.61639 -99.21572 36834 ft 466 kts 91°
2026-05-05 21:48 20.61607 -99.14631 36834 ft 466 kts 91°
2026-05-05 21:49 20.61578 -99.07736 36835 ft 466 kts 91°
2026-05-05 21:49 20.61547 -99.00823 36836 ft 467 kts 91°
2026-05-05 21:50 20.61515 -98.93873 36840 ft 467 kts 92°
2026-05-05 21:50 20.61474 -98.86978 36843 ft 467 kts 92°
2026-05-05 21:51 20.61427 -98.80028 36846 ft 467 kts 92°
2026-05-05 21:51 20.61386 -98.73120 36856 ft 467 kts 92°
2026-05-05 21:52 20.61315 -98.62734 36850 ft 467 kts 92°
2026-05-05 21:53 20.61262 -98.55824 36846 ft 467 kts 92°
2026-05-05 21:53 20.61199 -98.48892 36845 ft 466 kts 92°
2026-05-05 21:54 20.61144 -98.41982 36838 ft 466 kts 91°
2026-05-05 21:54 20.61088 -98.35047 36836 ft 466 kts 92°
2026-05-05 21:55 20.61022 -98.28116 36829 ft 466 kts 92°
2026-05-05 21:55 20.60952 -98.21228 36824 ft 465 kts 92°
2026-05-05 21:56 20.60879 -98.14294 36813 ft 465 kts 92°
2026-05-05 21:56 20.60818 -98.07417 36804 ft 465 kts 92°
2026-05-05 21:57 20.60747 -98.00537 36801 ft 465 kts 92°
2026-05-05 21:57 20.60667 -97.93609 36791 ft 465 kts 92°
2026-05-05 21:58 20.60588 -97.86724 36786 ft 465 kts 92°
2026-05-05 21:58 20.60510 -97.79850 36784 ft 464 kts 92°
2026-05-05 21:59 20.60424 -97.72931 36781 ft 465 kts 92°
2026-05-05 21:59 20.60341 -97.66070 36782 ft 464 kts 92°
2026-05-05 22:00 20.60253 -97.59184 36793 ft 465 kts 92°
2026-05-05 22:00 20.60163 -97.52265 36797 ft 465 kts 92°
2026-05-05 22:01 20.60047 -97.45358 36800 ft 465 kts 94°
2026-05-05 22:01 20.59597 -97.38510 36801 ft 464 kts 97°
2026-05-05 22:02 20.58870 -97.31663 36788 ft 463 kts 98°
2026-05-05 22:02 20.58154 -97.24860 36785 ft 463 kts 97°
2026-05-05 22:03 20.57514 -97.17996 36787 ft 464 kts 97°
2026-05-05 22:03 20.56905 -97.11144 36789 ft 464 kts 97°
2026-05-05 22:04 20.56288 -97.04307 36791 ft 464 kts 97°
2026-05-05 22:04 20.55649 -96.97438 36791 ft 463 kts 97°
2026-05-05 22:05 20.55007 -96.90609 36794 ft 463 kts 97°
2026-05-05 22:05 20.54365 -96.83779 36794 ft 464 kts 97°
2026-05-05 22:06 20.53722 -96.76962 36796 ft 464 kts 97°
2026-05-05 22:06 20.53069 -96.70089 36794 ft 463 kts 97°
2026-05-05 22:07 20.52423 -96.63276 36794 ft 463 kts 97°
2026-05-05 22:07 20.51765 -96.56413 36798 ft 463 kts 97°
2026-05-05 22:08 20.51113 -96.49593 36792 ft 464 kts 97°
2026-05-05 22:08 20.50568 -96.43889 36796 ft 464 kts 97°
2026-05-05 22:09 20.49910 -96.37059 36801 ft 464 kts 97°
2026-05-05 22:09 20.49247 -96.30221 36801 ft 465 kts 97°
2026-05-05 22:10 20.48574 -96.23344 36804 ft 465 kts 97°
2026-05-05 22:10 20.47899 -96.16480 36806 ft 465 kts 97°
2026-05-05 22:11 20.47223 -96.09646 36806 ft 465 kts 97°
2026-05-05 22:11 20.46545 -96.02770 36808 ft 465 kts 97°
2026-05-05 22:12 20.45869 -95.95906 36812 ft 465 kts 97°
2026-05-05 22:12 20.45192 -95.89073 36810 ft 465 kts 97°
2026-05-05 22:13 20.44501 -95.82210 36813 ft 465 kts 97°
2026-05-05 22:13 20.43806 -95.75331 36813 ft 465 kts 97°
2026-05-05 22:14 20.43128 -95.68503 36813 ft 465 kts 97°
2026-05-05 22:14 20.42441 -95.61643 36812 ft 465 kts 97°
2026-05-05 22:15 20.41743 -95.54755 36814 ft 465 kts 97°
2026-05-05 22:15 20.41045 -95.47925 36816 ft 466 kts 97°
2026-05-05 22:16 20.40331 -95.41047 36813 ft 466 kts 96°
2026-05-05 22:16 20.39630 -95.34209 36818 ft 466 kts 96°
2026-05-05 22:17 20.38929 -95.27324 36824 ft 466 kts 96°
2026-05-05 22:17 20.38229 -95.20476 36821 ft 466 kts 96°
2026-05-05 22:18 20.37508 -95.13586 36813 ft 466 kts 96°
2026-05-05 22:18 20.36789 -95.06744 36813 ft 466 kts 96°
2026-05-05 22:19 20.36066 -94.99855 36824 ft 466 kts 96°
2026-05-05 22:19 20.35348 -94.93020 36823 ft 466 kts 96°
2026-05-05 22:20 20.34629 -94.86146 36820 ft 466 kts 96°
2026-05-05 22:20 20.33897 -94.79246 36827 ft 466 kts 96°
2026-05-05 22:21 20.33172 -94.72423 36831 ft 466 kts 96°
2026-05-05 22:21 20.32441 -94.65552 36825 ft 466 kts 96°
2026-05-05 22:22 20.31704 -94.58663 36834 ft 466 kts 96°
2026-05-05 22:22 20.30966 -94.51820 36833 ft 466 kts 96°
2026-05-05 22:23 20.30225 -94.44971 36829 ft 466 kts 96°
2026-05-05 22:23 20.29479 -94.38083 36832 ft 466 kts 96°
2026-05-05 22:24 20.28737 -94.31257 36835 ft 466 kts 96°
2026-05-05 22:24 20.27994 -94.24399 36835 ft 466 kts 96°
2026-05-05 22:25 20.27242 -94.17529 36832 ft 466 kts 96°
2026-05-05 22:25 20.26487 -94.10647 36838 ft 466 kts 96°
2026-05-05 22:26 20.25739 -94.03817 36835 ft 467 kts 96°
2026-05-05 22:26 20.24980 -93.96941 36836 ft 467 kts 96°
2026-05-05 22:27 20.24221 -93.90068 36833 ft 467 kts 96°
2026-05-05 22:27 20.23460 -93.83227 36833 ft 468 kts 96°
2026-05-05 22:28 20.22685 -93.76337 36833 ft 468 kts 96°
2026-05-05 22:28 20.21907 -93.69436 36834 ft 468 kts 96°
2026-05-05 22:29 20.21130 -93.62598 36839 ft 468 kts 96°
2026-05-05 22:29 20.20350 -93.55697 36841 ft 468 kts 96°
2026-05-05 22:30 20.19583 -93.48847 36839 ft 468 kts 96°
2026-05-05 22:30 20.18799 -93.41950 36844 ft 469 kts 96°
2026-05-05 22:31 20.18004 -93.35091 36842 ft 469 kts 96°
2026-05-05 22:31 20.17209 -93.28169 36842 ft 469 kts 96°
2026-05-05 22:32 20.16421 -93.21271 36843 ft 469 kts 96°
2026-05-05 22:32 20.15628 -93.14396 36844 ft 469 kts 96°
2026-05-05 22:33 20.14825 -93.07489 36846 ft 470 kts 96°
2026-05-05 22:33 20.14034 -93.00612 36846 ft 470 kts 96°
2026-05-05 22:34 20.13237 -92.93695 36844 ft 470 kts 96°
2026-05-05 22:34 20.12428 -92.86819 36847 ft 471 kts 96°
2026-05-05 22:35 20.11603 -92.79883 36848 ft 471 kts 96°
2026-05-05 22:35 20.10785 -92.72988 36846 ft 471 kts 96°
2026-05-05 22:36 20.09964 -92.66051 36847 ft 472 kts 96°
2026-05-05 22:36 20.09144 -92.59129 36848 ft 472 kts 96°
2026-05-05 22:37 20.08326 -92.52219 36849 ft 473 kts 96°
2026-05-05 22:37 20.07501 -92.45269 36846 ft 473 kts 96°
2026-05-05 22:38 20.06663 -92.38319 36848 ft 473 kts 96°
2026-05-05 22:38 20.05826 -92.31387 36847 ft 474 kts 96°
2026-05-05 22:39 20.04981 -92.24445 36848 ft 474 kts 96°
2026-05-05 22:39 20.04145 -92.17481 36852 ft 475 kts 96°
2026-05-05 22:40 20.03300 -92.10496 36851 ft 475 kts 96°
2026-05-05 22:40 20.02451 -92.03549 36850 ft 476 kts 96°
2026-05-05 22:41 20.01610 -91.96596 36851 ft 476 kts 96°
2026-05-05 22:41 20.00757 -91.89587 36850 ft 477 kts 96°
2026-05-05 22:42 19.99898 -91.82622 36851 ft 477 kts 96°
2026-05-05 22:42 19.99024 -91.75620 36850 ft 478 kts 96°